Wind_Speed
21 19 18 18 17 15 14 14 13 12 10 9 7 7 6 6 5 6 6 6 6 7 7 7 6 7 6 6 6 5 5 5 5 5 5 6 6 6 5 5 5 6
22 20 19 18 17 16 15 14 13 12 10 8 7 6 5 6 6 6 6 7 7 8 8 8 8 8 8 8 7 7 7 6 7 7 7 7 8 8 8 8 8 8
23 22 21 20 19 18 16 15 13 12 10 9 8 6 5 6 6 6 7 7 8 8 9 9 9 9 9 9 8 9 9 9 8 8 8 8 9 9 9 9 9 9
24 23 23 21 20 19 18 16 14 13 11 10 9 7 7 6 6 6 6 7 8 9 9 10 10 10 10 10 10 10 11 10 10 9 9 9 9 9 10 10 10 9
26 25 24 23 21 20 18 17 16 15 13 11 10 9 9 8 7 7 8 9 9 10 10 11 11 11 11 12 12 12 12 11 11 11 11 11 10 10 10 11 11 10
27 26 24 23 22 20 19 18 17 16 14 12 12 12 12 12 11 11 13 13 13 13 13 13 14 14 14 13 14 14 13 12 12 12 11 11 11 11 11 11 11 11
27 26 25 23 22 21 20 19 19 19 17 15 16 16 15 16 17 19 21 19 18 17 17 17 17 17 16 14 14 14 14 13 12 12 11 11 11 11 12 12 11 12
27 27 26 24 23 23 23 22 22 23 23 22 22 21 21 23 25 26 26 24 23 22 21 19 18 18 16 14 14 14 14 14 13 13 12 12 12 12 13 13 12 13
27 27 27 26 26 27 26 25 26 30 31 30 28 26 28 31 30 29 28 26 26 26 24 20 18 18 17 15 14 15 15 14 14 13 13 13 13 13 13 13 14 15
28 28 29 30 30 30 30 30 34 39 39 36 34 33 36 36 33 31 30 29 29 28 25 22 20 18 16 16 16 17 17 16 15 14 14 14 14 14 14 14 14 15
30 31 32 34 33 32 32 34 40 44 41 39 39 39 40 39 35 33 32 31 31 29 27 26 23 20 17 16 17 18 17 16 15 15 15 15 14 15 15 14 14 14
32 32 34 35 33 33 35 36 41 44 43 42 44 44 42 39 35 35 34 33 33 31 29 27 23 19 18 17 17 18 17 15 15 15 16 15 15 15 15 15 14 15
33 34 35 35 34 36 37 37 41 46 46 47 48 46 43 39 36 36 36 35 34 32 31 29 25 20 19 18 18 19 18 16 15 16 16 16 15 15 14 15 15 16
33 34 34 35 36 37 38 41 46 49 49 49 48 47 44 41 39 40 38 36 34 32 31 29 26 22 19 18 19 20 19 17 16 17 17 16 16 15 15 15 16 16
32 31 31 34 37 39 41 47 52 52 50 50 49 48 46 43 42 41 39 36 33 29 27 25 22 20 19 19 20 20 20 18 18 18 17 16 17 16 16 16 17 16
31 30 31 33 37 44 47 49 52 52 51 51 50 49 47 44 42 39 34 33 31 26 24 22 20 19 19 20 21 21 20 18 18 19 18 18 17 17 17 17 17 16
32 31 30 33 41 48 49 48 50 52 52 52 51 49 46 42 40 36 28 24 25 23 22 21 20 19 20 21 23 24 22 19 18 19 19 19 18 17 17 17 16 14
31 29 29 35 44 50 50 49 50 50 50 47 42 41 41 37 36 36 28 20 19 19 20 20 19 20 22 23 24 26 26 22 19 18 18 19 19 18 17 17 16 15
30 30 30 35 42 46 46 46 46 47 43 33 24 25 27 26 28 29 23 18 16 17 18 19 19 21 24 25 25 26 26 24 21 18 18 19 19 18 18 18 17 16
31 32 32 32 34 35 35 34 36 38 34 23 15 15 15 15 17 17 16 16 16 15 17 17 18 20 24 25 24 24 24 26 24 20 19 18 16 16 19 18 17 16
29 30 29 28 27 27 27 26 26 26 24 19 16 14 12 12 13 13 13 14 14 14 15 16 17 20 22 22 22 22 24 26 24 19 19 19 18 19 19 16 14 13
27 27 26 24 23 23 24 25 23 20 19 18 17 15 13 12 12 12 13 13 14 15 16 16 17 20 21 22 21 21 23 25 22 19 18 17 17 17 16 13 13 13
25 24 23 22 22 22 23 23 22 20 19 18 17 16 14 12 12 13 13 14 15 17 18 18 18 21 22 22 21 21 23 24 22 18 16 15 13 13 15 16 17 16
25 24 23 23 22 22 22 21 20 20 20 19 16 16 14 12 12 12 12 13 15 16 18 18 18 19 21 20 20 21 22 23 20 16 16 16 13 14 17 19 16 14
26 23 23 23 21 21 20 19 18 19 19 17 15 14 14 13 13 12 12 13 14 14 16 17 17 17 18 19 20 22 23 21 18 15 14 14 13 14 17 16 13 11
24 22 22 21 20 19 17 16 16 16 16 15 14 14 14 14 14 13 12 13 13 12 13 15 15 15 16 17 19 22 24 21 17 15 15 14 14 13 12 11 11 10
Wind_Direction
194 194 195 199 200 200 199 196 191 189 189 183 179 182 180 178 183 194 205 212 215 219 217 213 210 209 208 204 206 215 222 227 232 233 232 237 244 248 254 260 263 274
193 193 193 196 199 199 198 198 192 185 184 182 176 173 169 171 180 191 200 209 214 214 209 207 207 207 211 213 210 211 217 225 232 237 237 239 246 249 251 256 257 259
192 191 192 195 196 196 195 194 189 181 181 181 178 172 163 167 178 188 199 207 211 209 206 209 211 210 214 218 217 215 216 223 229 237 243 241 244 251 254 257 259 257
193 192 193 195 196 194 191 188 184 179 182 181 173 165 159 163 172 180 192 203 209 212 210 213 217 215 215 218 221 222 223 226 228 233 243 245 244 250 254 257 260 261
194 193 193 194 195 193 188 186 184 179 182 180 166 161 160 157 162 178 194 202 207 214 218 218 219 216 217 219 221 225 227 229 228 229 237 243 246 248 250 251 251 253
195 194 193 193 193 190 187 187 184 178 180 175 161 159 164 163 170 185 194 199 203 209 216 218 215 212 214 217 221 227 230 231 231 231 234 238 242 246 251 255 253 252
196 194 193 192 190 188 188 186 182 179 177 172 165 166 176 184 190 193 194 195 199 204 210 214 212 209 210 213 219 227 232 235 237 239 242 241 240 241 247 254 252 248
196 194 192 190 186 186 187 182 180 179 175 176 179 184 193 201 202 198 195 195 199 201 205 209 209 208 209 211 216 224 229 233 237 239 240 240 240 239 239 243 247 246
194 193 191 189 186 185 183 177 175 178 180 187 194 200 206 209 207 202 196 197 201 201 201 204 207 208 209 210 214 222 226 228 232 235 235 235 235 237 236 236 240 243
194 192 190 190 188 185 181 176 176 181 187 195 200 208 213 211 208 205 200 199 202 200 196 198 202 206 209 211 216 222 224 226 229 231 234 235 234 236 237 236 237 243
195 192 189 189 190 188 183 179 180 185 191 196 202 210 214 210 206 206 203 201 202 200 196 197 200 202 205 213 222 224 222 224 229 232 233 235 236 238 239 239 240 245
197 193 189 188 190 190 183 179 183 187 192 199 206 212 212 209 209 209 206 204 204 203 202 200 198 197 201 212 226 228 223 222 228 234 236 234 235 238 240 242 244 249
198 196 191 187 188 186 181 180 185 189 195 203 209 213 211 210 212 213 210 209 208 208 207 203 200 198 199 208 224 230 226 221 226 233 238 237 235 237 239 242 246 249
198 197 191 185 183 182 181 186 190 194 201 208 211 213 212 213 216 217 215 213 211 209 208 206 202 198 197 204 218 227 226 222 222 227 233 237 237 239 240 244 248 251
194 194 188 181 179 180 186 193 197 201 208 212 212 213 213 215 218 218 216 213 209 206 204 202 198 195 196 203 214 223 225 223 220 221 227 232 237 242 243 246 252 254
185 184 181 179 181 186 191 197 200 204 209 212 213 213 212 213 212 212 213 209 204 200 196 196 196 195 197 203 212 221 224 223 221 222 224 228 233 239 244 249 252 253
174 173 175 182 188 191 194 198 201 204 208 212 215 213 210 209 207 206 205 199 196 194 190 191 195 195 198 204 211 219 222 222 223 225 226 228 230 235 244 250 252 255
169 172 177 186 193 196 199 202 203 203 208 212 213 211 210 209 207 209 207 195 189 192 192 194 197 197 200 204 212 220 224 226 228 230 229 229 228 230 239 246 249 253
173 179 187 193 197 200 202 202 203 205 209 212 210 207 208 207 207 210 207 193 187 192 196 200 202 200 201 205 213 223 228 228 229 232 233 232 230 232 237 243 247 249
176 183 192 196 196 198 200 202 205 209 212 214 208 202 201 197 196 196 190 184 187 193 198 205 209 207 205 209 216 224 228 229 228 232 237 236 234 233 235 240 244 246
179 184 190 192 191 195 199 203 207 211 215 216 215 212 204 193 188 184 182 185 190 195 202 210 216 214 210 211 218 224 227 227 226 229 236 238 239 240 238 239 244 245
179 183 184 186 188 193 201 206 208 209 212 213 213 212 203 193 189 190 192 193 193 197 203 210 218 219 215 213 218 222 223 224 224 223 227 234 239 241 237 229 229 238
179 182 181 181 186 193 200 205 205 204 204 204 204 204 202 196 195 198 198 196 196 200 205 212 222 223 218 215 219 222 221 220 219 218 224 228 225 225 230 231 236 247
180 184 183 182 186 193 197 201 202 202 202 201 201 205 209 208 204 204 202 200 206 214 216 218 222 221 215 214 219 223 221 217 216 220 227 228 221 223 233 237 239 245
178 183 184 182 185 191 194 196 198 199 201 200 202 209 216 217 214 212 210 208 217 227 225 221 222 220 215 217 223 224 221 216 215 220 222 221 221 227 232 229 225 231
176 179 181 180 181 184 186 188 190 192 193 191 193 201 206 210 211 211 215 218 220 222 220 219 221 217 212 216 223 224 221 215 210 212 218 222 223 220 217 213 208 216
Height
792 795 797 800 802 804 806 808 809 812 814 816 818 820 822 823 825 826 827 829 830 831 832 832 833 833 834 834 835 835 836 836 836 837 837 837 838 837 838 837 837 838
789 792 795 797 800 802 804 806 809 811 814 816 818 820 821 823 824 826 827 828 829 830 831 831 832 832 833 833 833 834 834 835 835 835 835 836 836 837 837 836 836 837
787 789 792 794 797 799 802 805 808 811 813 816 818 819 821 822 824 825 826 827 828 829 829 830 831 831 832 832 832 832 832 833 833 833 834 834 835 836 836 835 835 835
784 786 789 792 794 797 801 804 807 810 813 815 816 818 819 821 822 824 825 826 827 828 828 829 829 830 831 831 831 831 831 831 831 831 832 832 833 835 835 835 835 834
780 783 786 789 792 796 799 803 806 808 811 813 814 816 817 819 820 821 823 823 824 825 826 826 827 827 828 829 830 830 830 830 830 830 830 831 832 832 833 834 834 834
777 780 783 787 790 794 798 801 804 807 809 811 811 813 814 815 816 816 817 817 818 820 821 822 823 823 824 825 827 828 829 829 829 829 829 829 830 830 831 832 832 832
774 777 781 785 788 793 796 799 801 804 806 807 807 809 809 808 807 806 806 808 810 812 814 816 818 819 820 822 824 826 827 828 828 828 828 828 828 829 829 830 830 830
771 774 778 782 786 790 793 795 797 799 800 801 802 802 800 798 796 795 797 799 802 804 807 811 814 816 818 819 821 823 825 826 827 827 827 827 827 827 828 828 828 828
768 771 775 778 781 784 787 789 791 792 793 794 794 793 790 787 787 789 792 794 797 800 802 807 811 814 816 817 818 821 822 823 824 825 825 825 825 825 825 826 826 826
765 767 770 773 775 777 779 781 782 783 784 785 785 783 779 779 781 785 787 790 793 796 799 803 808 811 813 815 816 818 819 820 821 822 822 822 822 822 823 823 824 824
761 763 765 767 769 771 773 775 775 776 777 777 775 773 772 774 778 781 784 787 790 793 796 799 803 807 810 813 815 816 816 817 819 820 820 820 820 820 821 821 821 822
757 758 758 760 763 765 768 770 770 770 771 769 767 767 769 772 776 779 781 784 787 791 794 797 801 803 806 810 814 815 815 815 816 818 818 818 818 818 819 819 819 820
750 752 752 754 757 760 762 763 764 764 763 762 762 764 767 770 773 776 779 781 785 788 791 794 798 800 802 807 811 813 813 812 813 815 816 816 815 816 817 817 818 818
743 746 748 749 753 755 756 757 757 758 757 757 759 762 764 766 768 772 775 778 782 786 789 792 794 796 799 803 807 810 811 810 810 812 813 814 814 814 814 815 816 816
738 743 746 747 748 749 750 750 751 753 754 755 757 758 760 761 764 768 773 776 779 783 787 790 792 794 796 800 804 807 808 808 808 809 810 811 812 812 813 813 814 814
736 740 743 743 744 743 744 745 747 750 752 752 753 754 756 758 761 766 771 773 776 780 784 787 789 791 793 797 801 804 806 806 806 807 807 808 809 810 811 812 812 812
733 736 738 739 740 740 740 742 745 747 748 750 750 751 754 757 759 764 769 771 773 776 780 783 786 788 790 794 798 801 803 804 805 805 806 806 806 807 808 810 810 811
729 732 733 735 736 737 739 740 743 745 747 748 749 750 754 756 758 761 766 769 772 774 778 780 783 785 787 791 795 798 800 801 803 804 804 804 804 804 805 807 808 808
726 729 731 732 733 735 737 739 742 744 745 747 749 752 754 756 758 761 764 768 771 773 776 778 781 782 784 788 791 794 796 798 800 801 801 801 801 801 803 804 805 805
723 725 728 730 731 734 737 739 742 743 744 747 749 752 754 755 758 761 763 766 769 771 774 777 779 780 782 785 788 790 792 794 796 798 799 799 799 799 800 802 803 803
720 723 726 728 731 734 737 739 742 743 745 747 749 751 753 755 758 760 762 764 767 769 773 775 777 778 780 782 785 787 789 792 794 795 796 797 797 797 798 800 801 801
717 721 723 726 729 732 735 738 740 742 744 746 749 751 753 754 757 759 761 763 765 767 771 773 775 776 777 779 782 784 787 789 791 792 793 794 794 795 796 797 798 798
716 719 721 724 726 729 732 735 737 739 742 745 747 750 752 754 756 757 759 761 763 765 767 769 771 772 774 776 779 782 784 786 787 788 790 791 792 792 793 794 794 795
714 717 719 721 724 726 729 731 734 736 739 741 744 747 749 752 754 756 758 759 762 764 765 767 768 769 771 774 777 779 782 783 785 786 787 789 789 790 790 791 792 792
712 715 717 719 722 725 728 730 733 735 737 739 741 744 747 750 752 754 756 758 761 763 764 765 766 767 769 772 775 777 779 781 783 784 785 787 788 789 789 789 790 790
710 713 716 718 722 725 728 731 733 735 737 738 739 742 745 748 751 753 755 756 759 761 762 763 765 765 767 770 773 775 777 779 780 782 783 785 786 787 787 787 787 787